Retour au catalogue

OPS 0856 DEB

LostPO
NORAD 27636·DEBRIS·🇺🇸 United States

Lancé Aug 19, 1966 depuis Vandenberg Space Force Base

Loading…

Prochains Passages (prochaines 24 heures)

TLE

PériméSource: Space-Track

Époque: Dec 9, 2016, 00:45 UTC

1 27636U 66077AB  16344.03192326  .00000003  00000-0  10000-3 0  9991
2 27636  89.7355  14.9583 1054559  15.3386 347.7499  8.65225237489877

Suivez OPS 0856 DEB en temps réel avec AllMySat

Download on the App Store